| time (UTC) | temp C | wind direction | speed KPH | gust KPH | rain 1hr cm | rain 24hr cm | rain mn cm | humidity % | barometer mb |
| 20260503050855 | 14 | 59 | 0.0 | 0.0 | 0.00 | 0.00 | 0.00 | 48 | 1011.0 |
| 20260503045928 | 15 | 59 | 0.0 | 0.0 | 0.00 | 0.00 | 0.00 | 47 | 1011.0 |
| 20260503044925 | 16 | 59 | 0.0 | 0.0 | 0.00 | 0.00 | 0.00 | 44 | 1011.0 |
| 20260503043914 | 16 | 59 | 0.0 | 4.8 | 0.00 | 0.00 | 0.00 | 42 | 1010.9 |
| 20260503042903 | 16 | 59 | 0.0 | 0.0 | 0.00 | 0.00 | 0.00 | 42 | 1010.8 |
| 20260503041905 | 17 | 59 | 0.0 | 0.0 | 0.00 | 0.00 | 0.00 | 41 | 1010.8 |
| 20260503040939 | 17 | 59 | 0.0 | 6.4 | 0.00 | 0.00 | 0.00 | 37 | 1010.8 |
| 20260503035917 | 17 | 59 | 0.0 | 0.0 | 0.00 | 0.00 | 0.00 | 38 | 1010.7 |
| 20260503034916 | 18 | 59 | 0.0 | 6.4 | 0.00 | 0.00 | 0.00 | 36 | 1010.6 |
| 20260503033937 | 18 | 59 | 0.0 | 0.0 | 0.00 | 0.00 | 0.00 | 35 | 1010.5 |
| 20260503032923 | 18 | 59 | 0.0 | 14.5 | 0.00 | 0.00 | 0.00 | 33 | 1010.3 |
| 20260503031931 | 19 | 59 | 0.0 | 8.0 | 0.00 | 0.00 | 0.00 | 32 | 1010.2 |
| 20260503030924 | 19 | 59 | 0.0 | 8.0 | 0.00 | 0.00 | 0.00 | 31 | 1010.2 |
| 20260503025917 | 20 | 59 | 1.6 | 12.9 | 0.00 | 0.00 | 0.00 | 31 | 1010.0 |
| 20260503024911 | 20 | 59 | 0.0 | 8.0 | 0.00 | 0.00 | 0.00 | 31 | 1010.0 |
| 20260503023922 | 21 | 59 | 0.0 | 1.6 | 0.00 | 0.00 | 0.00 | 31 | 1010.0 |
| 20260503022855 | 21 | 61 | 0.0 | 1.6 | 0.00 | 0.00 | 0.00 | 29 | 1009.9 |
| 20260503021940 | 22 | 61 | 0.0 | 4.8 | 0.00 | 0.00 | 0.00 | 28 | 1009.9 |
| 20260503020858 | 22 | 61 | 1.6 | 12.9 | 0.00 | 0.00 | 0.00 | 26 | 1009.9 |
| 20260503015939 | 22 | 61 | 0.0 | 8.0 | 0.00 | 0.00 | 0.00 | 26 | 1009.9 |
| 20260503014917 | 22 | 61 | 1.6 | 8.0 | 0.00 | 0.00 | 0.00 | 26 | 1010.1 |
| 20260503013923 | 23 | 61 | 0.0 | 8.0 | 0.00 | 0.00 | 0.00 | 24 | 1010.2 |
| 20260503012909 | 23 | 61 | 0.0 | 3.2 | 0.00 | 0.00 | 0.00 | 23 | 1010.2 |
| 20260503011926 | 23 | 61 | 0.0 | 4.8 | 0.00 | 0.00 | 0.00 | 22 | 1010.2 |
| 20260503010929 | 24 | 61 | 0.0 | 6.4 | 0.00 | 0.00 | 0.00 | 21 | 1010.3 |
| 20260503005913 | 24 | 61 | 0.0 | 3.2 | 0.00 | 0.00 | 0.00 | 21 | 1010.3 |
| 20260503004911 | 25 | 61 | 0.0 | 11.3 | 0.00 | 0.00 | 0.00 | 20 | 1010.4 |
| 20260503003926 | 25 | 61 | 1.6 | 12.9 | 0.00 | 0.00 | 0.00 | 19 | 1010.4 |
| 20260503002917 | 25 | 62 | 1.6 | 12.9 | 0.00 | 0.00 | 0.00 | 21 | 1010.3 |
| 20260503001936 | 25 | 66 | 1.6 | 8.0 | 0.00 | 0.00 | 0.00 | 20 | 1010.4 |
| 20260503000936 | 25 | 66 | 0.0 | 17.7 | 0.00 | 0.00 | 0.00 | 19 | 1010.5 |
| 20260502235856 | 25 | 81 | 0.0 | 16.1 | 0.00 | 0.00 | 0.00 | 16 | 1010.5 |
| 20260502234937 | 25 | 83 | 0.0 | 0.0 | 0.00 | 0.00 | 0.00 | 18 | 1010.6 |
| 20260502233933 | 25 | 84 | 0.0 | 1.6 | 0.00 | 0.00 | 0.00 | 19 | 1010.8 |
| 20260502232906 | 25 | 84 | 0.0 | 16.1 | 0.00 | 0.00 | 0.00 | 19 | 1010.8 |
| 20260502231931 | 26 | 89 | 0.0 | 11.3 | 0.00 | 0.00 | 0.00 | 20 | 1010.8 |
| 20260502230858 | 26 | 93 | 0.0 | 11.3 | 0.00 | 0.00 | 0.00 | 20 | 1010.7 |
| 20260502225909 | 26 | 94 | 0.0 | 14.5 | 0.00 | 0.00 | 0.00 | 17 | 1010.9 |
| 20260502224911 | 26 | 114 | 0.0 | 14.5 | 0.00 | 0.00 | 0.00 | 23 | 1011.0 |
| 20260502223855 | 26 | 121 | 0.0 | 1.6 | 0.00 | 0.00 | 0.00 | 18 | 1011.2 |
| 20260502222930 | 25 | 125 | 0.0 | 0.0 | 0.00 | 0.00 | 0.00 | 19 | 1011.3 |
| 20260502221928 | 26 | 126 | 0.0 | 11.3 | 0.00 | 0.00 | 0.00 | 21 | 1011.4 |
| 20260502220940 | 26 | 135 | 0.0 | 1.6 | 0.00 | 0.00 | 0.00 | 21 | 1011.5 |
| 20260502215936 | 26 | 135 | 0.0 | 0.0 | 0.00 | 0.00 | 0.00 | 19 | 1011.7 |
| 20260502214926 | 26 | 136 | 0.0 | 6.4 | 0.00 | 0.00 | 0.00 | 20 | 1012.0 |
| 20260502213930 | 26 | 136 | 0.0 | 11.3 | 0.00 | 0.00 | 0.00 | 16 | 1011.9 |
| 20260502212939 | 26 | 136 | 0.0 | 9.7 | 0.00 | 0.00 | 0.00 | 18 | 1012.1 |
| 20260502211925 | 25 | 136 | 0.0 | 6.4 | 0.00 | 0.00 | 0.00 | 20 | 1012.4 |
| 20260502210918 | 25 | 136 | 0.0 | 3.2 | 0.00 | 0.00 | 0.00 | 18 | 1012.4 |
| 20260502205937 | 25 | 136 | 0.0 | 0.0 | 0.00 | 0.00 | 0.00 | 20 | 1012.5 |
| 20260502204931 | 25 | 135 | 0.0 | 1.6 | 0.00 | 0.00 | 0.00 | 22 | 1012.7 |
| 20260502203922 | 24 | 136 | 0.0 | 0.0 | 0.00 | 0.00 | 0.00 | 22 | 1012.8 |
| 20260502202856 | 24 | 136 | 0.0 | 12.9 | 0.00 | 0.00 | 0.00 | 23 | 1013.0 |
| 20260502201917 | 23 | 136 | 0.0 | 9.7 | 0.00 | 0.00 | 0.00 | 23 | 1013.1 |
| 20260502200940 | 23 | 138 | 0.0 | 1.6 | 0.00 | 0.00 | 0.00 | 21 | 1013.1 |
| 20260502195931 | 23 | 140 | 3.2 | 16.1 | 0.00 | 0.00 | 0.00 | 25 | 1013.1 |
| 20260502194904 | 23 | 144 | 0.0 | 16.1 | 0.00 | 0.00 | 0.00 | 25 | 1013.4 |
| 20260502193900 | 22 | 158 | 0.0 | 11.3 | 0.00 | 0.00 | 0.00 | 27 | 1013.6 |
| 20260502192938 | 21 | 158 | 0.0 | 8.0 | 0.00 | 0.00 | 0.00 | 27 | 1013.6 |
| 20260502191931 | 21 | 158 | 0.0 | 6.4 | 0.00 | 0.00 | 0.00 | 27 | 1013.8 |
| 20260502190859 | 21 | 158 | 0.0 | 1.6 | 0.00 | 0.00 | 0.00 | 25 | 1014.1 |
| 20260502185858 | 21 | 158 | 0.0 | 0.0 | 0.00 | 0.00 | 0.00 | 26 | 1014.1 |
| 20260502184857 | 21 | 158 | 0.0 | 0.0 | 0.00 | 0.00 | 0.00 | 26 | 1014.1 |
| 20260502183903 | 21 | 158 | 0.0 | 1.6 | 0.00 | 0.00 | 0.00 | 25 | 1014.2 |
| 20260502182940 | 20 | 158 | 0.0 | 6.4 | 0.00 | 0.00 | 0.00 | 27 | 1014.6 |
| 20260502181856 | 20 | 158 | 0.0 | 8.0 | 0.00 | 0.00 | 0.00 | 27 | 1014.6 |
| 20260502180915 | 20 | 158 | 0.0 | 6.4 | 0.00 | 0.00 | 0.00 | 28 | 1014.7 |
| 20260502163934 | 16 | 157 | 0.0 | 0.0 | 0.00 | 0.00 | 0.00 | 33 | 1015.3 |
| 20260502162905 | 16 | 157 | 0.0 | 14.5 | 0.00 | 0.00 | 0.00 | 32 | 1015.3 |
| 20260502161921 | 16 | 155 | 1.6 | 9.7 | 0.00 | 0.00 | 0.00 | 31 | 1015.4 |
| 20260502160930 | 15 | 150 | 0.0 | 11.3 | 0.00 | 0.00 | 0.00 | 35 | 1015.3 |
| 20260502151914 | 13 | 144 | 0.0 | 0.0 | 0.00 | 0.00 | 0.00 | 49 | 1015.1 |
| 20260502150902 | 12 | 144 | 0.0 | 0.0 | 0.00 | 0.00 | 0.00 | 61 | 1015.1 |
| 20260502122908 | 6 | 144 | 0.0 | 0.0 | 0.00 | 0.00 | 0.00 | 65 | 1014.3 |
| 20260502121921 | 6 | 144 | 0.0 | 0.0 | 0.00 | 0.00 | 0.00 | 65 | 1014.2 |
| 20260502120914 | 6 | 144 | 0.0 | 0.0 | 0.00 | 0.00 | 0.00 | 64 | 1014.4 |
| 20260502115910 | 6 | 144 | 0.0 | 0.0 | 0.00 | 0.00 | 0.00 | 63 | 1014.3 |
| 20260502114928 | 6 | 144 | 0.0 | 0.0 | 0.00 | 0.00 | 0.00 | 62 | 1014.4 |
| 20260502113902 | 6 | 144 | 0.0 | 0.0 | 0.00 | 0.00 | 0.00 | 60 | 1014.3 |
| 20260502112856 | 7 | 144 | 0.0 | 0.0 | 0.00 | 0.00 | 0.00 | 59 | 1014.3 |
| 20260502111915 | 7 | 144 | 0.0 | 0.0 | 0.00 | 0.00 | 0.00 | 59 | 1014.3 |
| 20260502110919 | 7 | 144 | 0.0 | 0.0 | 0.00 | 0.00 | 0.00 | 57 | 1014.2 |
| 20260502105858 | 7 | 144 | 0.0 | 0.0 | 0.00 | 0.00 | 0.00 | 56 | 1014.2 |
| 20260502104907 | 8 | 144 | 0.0 | 0.0 | 0.00 | 0.00 | 0.00 | 54 | 1014.3 |
| 20260502103856 | 9 | 144 | 0.0 | 0.0 | 0.00 | 0.00 | 0.00 | 52 | 1014.2 |
| 20260502102934 | 9 | 144 | 0.0 | 0.0 | 0.00 | 0.00 | 0.00 | 51 | 1014.2 |
| 20260502101914 | 9 | 144 | 0.0 | 0.0 | 0.00 | 0.00 | 0.00 | 51 | 1014.3 |
| 20260502100908 | 9 | 144 | 0.0 | 0.0 | 0.00 | 0.00 | 0.00 | 52 | 1014.2 |
| 20260502090906 | 8 | 144 | 0.0 | 0.0 | 0.00 | 0.00 | 0.00 | 58 | 1014.2 |
| 20260502070934 | 11 | 144 | 0.0 | 0.0 | 0.00 | 0.00 | 0.00 | 46 | 1014.6 |
| 20260502065928 | 11 | 144 | 0.0 | 0.0 | 0.00 | 0.00 | 0.00 | 48 | 1014.6 |
| 20260502064906 | 10 | 144 | 0.0 | 0.0 | 0.00 | 0.00 | 0.00 | 48 | 1014.6 |
| 20260502063917 | 10 | 144 | 0.0 | 0.0 | 0.00 | 0.00 | 0.00 | 50 | 1014.6 |
| 20260502062932 | 10 | 144 | 0.0 | 0.0 | 0.00 | 0.00 | 0.00 | 50 | 1014.6 |
| 20260502061924 | 11 | 144 | 0.0 | 0.0 | 0.00 | 0.00 | 0.00 | 49 | 1014.6 |
| 20260502060913 | 11 | 144 | 0.0 | 0.0 | 0.00 | 0.00 | 0.00 | 48 | 1014.5 |
| 20260502055912 | 11 | 144 | 0.0 | 0.0 | 0.00 | 0.00 | 0.00 | 48 | 1014.6 |
| 20260502054937 | 11 | 144 | 0.0 | 0.0 | 0.00 | 0.00 | 0.00 | 47 | 1014.6 |
| 20260502053922 | 12 | 144 | 0.0 | 0.0 | 0.00 | 0.00 | 0.00 | 45 | 1014.6 |
| 20260502052928 | 12 | 144 | 0.0 | 0.0 | 0.00 | 0.00 | 0.00 | 44 | 1014.5 |
| 20260502051908 | 12 | 144 | 0.0 | 0.0 | 0.00 | 0.00 | 0.00 | 43 | 1014.5 |